• In Belarus
  • List of Countries
  • For 7 days
  • Water Temperature
  • Satellite Maps
  • Weather Map
  • Weather Widgets
  • user-avatar
    Login

    Hourly Weather Kastoria

    Today, 22 September, Saturday

    Time Temperature Precipitation Wind Pressure Humidity
    00:00 +18°C° 0 mm 1 mps 705 mmHg 62%
    01:00 +16°C° 0 mm 1 mps 705 mmHg 62%
    02:00 +16°C° 0 mm 1 mps 704 mmHg 62%
    03:00 +16°C° 0 mm 1 mps 704 mmHg 62%
    04:00 +15°C° 0 mm 0 mps 704 mmHg 62%
    05:00 +16°C° 0 mm 0 mps 704 mmHg 59%
    06:00 +17°C° 0 mm 0 mps 705 mmHg 56%
    07:00 +18°C° 0 mm 0 mps 705 mmHg 53%
    08:00 +21°C° 0 mm 0 mps 705 mmHg 47%
    09:00 +23°C° 0 mm 0 mps 706 mmHg 41%
    10:00 +25°C° 0 mm 0 mps 706 mmHg 35%
    11:00 +26°C° 0 mm 0 mps 706 mmHg 32%
    12:00 +29°C° 0 mm 1 mps 706 mmHg 30%
    13:00 +30°C° 0 mm 1 mps 706 mmHg 28%
    14:00 +29°C° 0 mm 1 mps 706 mmHg 28%
    15:00 +29°C° 0 mm 1 mps 706 mmHg 29%
    16:00 +28°C° 0 mm 1 mps 705 mmHg 30%
    17:00 +26°C° 0 mm 1 mps 705 mmHg 37%
    18:00 +24°C° 0 mm 1 mps 705 mmHg 43%
    19:00 +22°C° 0 mm 1 mps 705 mmHg 50%
    20:00 +21°C° 0 mm 1 mps 706 mmHg 54%
    21:00 +20°C° 0 mm 1 mps 706 mmHg 58%
    22:00 +20°C° 0 mm 1 mps 706 mmHg 61%
    23:00 +19°C° 0 mm 1 mps 706 mmHg 64%

    Tomorrow, 23 September, Sunday

    Time Temperature Precipitation Wind Pressure Humidity
    00:00 +19°C° 0 mm 1 mps 706 mmHg 66%
    01:00 +19°C° 0 mm 1 mps 706 mmHg 69%
    02:00 +18°C° 0 mm 1 mps 706 mmHg 70%
    03:00 +18°C° 0 mm 1 mps 706 mmHg 71%
    04:00 +18°C° 0 mm 1 mps 706 mmHg 73%
    05:00 +19°C° 0 mm 1 mps 706 mmHg 69%
    06:00 +20°C° 0 mm 1 mps 707 mmHg 65%
    07:00 +21°C° 0 mm 1 mps 707 mmHg 60%
    08:00 +24°C° 0 mm 1 mps 707 mmHg 52%
    09:00 +26°C° 0 mm 1 mps 708 mmHg 43%
    10:00 +29°C° 0 mm 1 mps 708 mmHg 34%
    11:00 +29°C° 0 mm 1 mps 708 mmHg 32%
    12:00 +30°C° 0 mm 1 mps 708 mmHg 30%
    13:00 +31°C° 0 mm 1 mps 708 mmHg 27%
    14:00 +31°C° 0 mm 1 mps 707 mmHg 28%
    15:00 +30°C° 0 mm 1 mps 707 mmHg 29%
    16:00 +30°C° 0 mm 1 mps 707 mmHg 30%
    17:00 +28°C° 0 mm 1 mps 707 mmHg 36%
    18:00 +25°C° 0 mm 1 mps 706 mmHg 41%
    19:00 +23°C° 0 mm 1 mps 706 mmHg 47%
    20:00 +22°C° 0 mm 1 mps 706 mmHg 50%
    21:00 +22°C° 0 mm 1 mps 706 mmHg 52%
    22:00 +21°C° 0 mm 1 mps 706 mmHg 55%
    23:00 +21°C° 0 mm 1 mps 706 mmHg 57%

    Day after tomorrow, 24 September, Monday

    Time Temperature Precipitation Wind Pressure Humidity
    00:00 +20°C° 0 mm 1 mps 706 mmHg 60%
    01:00 +20°C° 0 mm 1 mps 705 mmHg 62%
    02:00 +19°C° 0 mm 1 mps 705 mmHg 64%
    03:00 +19°C° 0 mm 1 mps 705 mmHg 66%
    04:00 +19°C° 0 mm 1 mps 704 mmHg 68%
    05:00 +20°C° 0 mm 1 mps 705 mmHg 65%
    06:00 +21°C° 0 mm 1 mps 705 mmHg 63%
    07:00 +22°C° 0 mm 1 mps 705 mmHg 60%
    08:00 +24°C° 0 mm 1 mps 705 mmHg 51%
    09:00 +27°C° 0 mm 1 mps 705 mmHg 43%
    10:00 +29°C° 0 mm 2 mps 705 mmHg 34%
    11:00 +30°C° 0 mm 2 mps 705 mmHg 31%
    12:00 +31°C° 0 mm 2 mps 705 mmHg 28%
    13:00 +32°C° 0 mm 2 mps 704 mmHg 25%
    14:00 +31°C° 0 mm 2 mps 704 mmHg 27%
    15:00 +30°C° 0 mm 2 mps 704 mmHg 28%
    16:00 +30°C° 0 mm 2 mps 703 mmHg 30%
    17:00 +27°C° 0 mm 3 mps 704 mmHg 37%
    18:00 +24°C° 0 mm 3 mps 704 mmHg 44%
    19:00 +21°C° 0 mm 3 mps 704 mmHg 51%
    20:00 +19°C° 0 mm 3 mps 704 mmHg 54%
    21:00 +18°C° 0 mm 3 mps 705 mmHg 57%
    22:00 +16°C° 0 mm 3 mps 705 mmHg 59%
    23:00 +14°C° 0 mm 3 mps 705 mmHg 59%

    25 September, Tuesday

    Time Temperature Precipitation Wind Pressure Humidity
    00:00 +14°C° 0 mm 3 mps 705 mmHg 59%
    01:00 +13°C° 0 mm 3 mps 705 mmHg 59%
    02:00 +12°C° 0 mm 3 mps 706 mmHg 59%
    03:00 +12°C° 0 mm 3 mps 706 mmHg 59%
    04:00 +11°C° 0 mm 3 mps 706 mmHg 58%
    05:00 +11°C° 0 mm 3 mps 706 mmHg 56%
    06:00 +12°C° 0 mm 3 mps 706 mmHg 54%
    07:00 +12°C° 0 mm 3 mps 707 mmHg 52%
    08:00 +14°C° 0 mm 3 mps 707 mmHg 48%
    09:00 +17°C° 0 mm 4 mps 708 mmHg 43%
    10:00 +18°C° 0 mm 4 mps 708 mmHg 38%
    11:00 +19°C° 0 mm 4 mps 708 mmHg 37%
    12:00 +20°C° 0 mm 4 mps 708 mmHg 36%
    13:00 +21°C° 0 mm 4 mps 708 mmHg 35%
    14:00 +20°C° 0 mm 4 mps 708 mmHg 35%
    15:00 +20°C° 0 mm 4 mps 708 mmHg 36%
    16:00 +19°C° 0 mm 4 mps 708 mmHg 36%
    17:00 +17°C° 0 mm 4 mps 708 mmHg 36%
    18:00 +16°C° 0 mm 3 mps 708 mmHg 37%
    19:00 +13°C° 0 mm 3 mps 709 mmHg 37%
    20:00 +12°C° 0 mm 3 mps 709 mmHg 38%
    21:00 +11°C° 0 mm 3 mps 709 mmHg 39%
    22:00 +10°C° 0 mm 3 mps 710 mmHg 40%
    23:00 +9°C° 0 mm 2 mps 710 mmHg 44%

    26 September, Wednesday

    Time Temperature Precipitation Wind Pressure Humidity
    00:00 +8°C° 0 mm 2 mps 710 mmHg 47%
    01:00 +7°C° 0 mm 2 mps 710 mmHg 51%
    02:00 +7°C° 0 mm 2 mps 710 mmHg 53%
    03:00 +6°C° 0 mm 2 mps 710 mmHg 55%
    04:00 +6°C° 0 mm 2 mps 710 mmHg 57%
    05:00 +6°C° 0 mm 2 mps 710 mmHg 54%
    06:00 +7°C° 0 mm 2 mps 710 mmHg 50%
    07:00 +8°C° 0 mm 2 mps 711 mmHg 47%
    08:00 +10°C° 0 mm 2 mps 711 mmHg 41%
    09:00 +14°C° 0 mm 2 mps 711 mmHg 35%
    10:00 +16°C° 0 mm 2 mps 711 mmHg 29%
    11:00 +17°C° 0 mm 2 mps 711 mmHg 27%
    12:00 +18°C° 0 mm 2 mps 710 mmHg 25%
    13:00 +19°C° 0 mm 2 mps 710 mmHg 23%
    14:00 +19°C° 0 mm 2 mps 710 mmHg 23%
    15:00 +19°C° 0 mm 2 mps 709 mmHg 23%
    16:00 +19°C° 0 mm 2 mps 709 mmHg 23%
    17:00 +16°C° 0 mm 2 mps 709 mmHg 26%
    18:00 +14°C° 0 mm 1 mps 709 mmHg 29%
    19:00 +12°C° 0 mm 1 mps 709 mmHg 32%
    20:00 +12°C° 0 mm 1 mps 709 mmHg 32%
    21:00 +10°C° 0 mm 2 mps 709 mmHg 32%
    22:00 +9°C° 0 mm 2 mps 709 mmHg 33%
    23:00 +9°C° 0 mm 2 mps 709 mmHg 33%

    27 September, Thursday

    Time Temperature Precipitation Wind Pressure Humidity
    00:00 +8°C° 0 mm 2 mps 709 mmHg 34%
    01:00 +8°C° 0 mm 2 mps 709 mmHg 34%
    02:00 +7°C° 0 mm 2 mps 709 mmHg 36%
    03:00 +7°C° 0 mm 2 mps 709 mmHg 37%
    04:00 +7°C° 0 mm 2 mps 709 mmHg 38%
    05:00 +8°C° 0 mm 2 mps 709 mmHg 37%
    06:00 +9°C° 0 mm 2 mps 709 mmHg 37%
    07:00 +10°C° 0 mm 2 mps 709 mmHg 37%
    08:00 +13°C° 0 mm 2 mps 709 mmHg 33%
    09:00 +14°C° 0 mm 3 mps 709 mmHg 29%
    10:00 +17°C° 0 mm 3 mps 709 mmHg 26%
    11:00 +18°C° 0 mm 3 mps 709 mmHg 25%
    12:00 +19°C° 0 mm 3 mps 709 mmHg 24%
    13:00 +20°C° 0 mm 3 mps 709 mmHg 23%
    14:00 +19°C° 0 mm 3 mps 708 mmHg 24%
    15:00 +19°C° 0 mm 3 mps 708 mmHg 25%
    16:00 +19°C° 0 mm 3 mps 708 mmHg 25%
    17:00 +17°C° 0 mm 2 mps 708 mmHg 29%
    18:00 +15°C° 0 mm 2 mps 708 mmHg 33%
    19:00 +12°C° 0 mm 1 mps 708 mmHg 37%
    20:00 +12°C° 0 mm 1 mps 708 mmHg 39%
    21:00 +11°C° 0 mm 1 mps 708 mmHg 41%
    22:00 +11°C° 0 mm 1 mps 708 mmHg 43%
    23:00 +10°C° 0 mm 1 mps 708 mmHg 45%
    Show more